| time (UTC) | temp F | wind direction | speed MPH | gust MPH | rain 1hr in | rain 24hr in | rain mn in | humidity % | barometer mb |
| 20260509005505 | 62 | 330 | 1.0 | 4.0 | 0.00 | 0.00 | 0.00 | 61 | 1015.2 |
| 20260509005004 | 63 | 318 | 2.0 | 4.0 | 0.00 | 0.00 | 0.00 | 59 | 1015.5 |
| 20260509004506 | 63 | 331 | 1.0 | 4.0 | 0.00 | 0.00 | 0.00 | 59 | 1015.4 |
| 20260509004004 | 63 | 31 | 0.0 | 3.0 | 0.00 | 0.00 | 0.00 | 59 | 1015.5 |
| 20260509003505 | 63 | 354 | 0.0 | 3.0 | 0.00 | 0.00 | 0.00 | 58 | 1015.6 |
| 20260509002005 | 64 | 300 | 1.0 | 5.0 | 0.00 | 0.00 | 0.00 | 58 | 1015.7 |
| 20260509001504 | 64 | 314 | 2.0 | 5.0 | 0.00 | 0.00 | 0.00 | 57 | 1015.5 |
| 20260509000504 | 64 | 294 | 0.0 | 5.0 | 0.00 | 0.00 | 0.00 | 56 | 1015.7 |
| 20260509000005 | 64 | 277 | 0.0 | 5.0 | 0.00 | 0.00 | 0.00 | 56 | 1015.7 |
| 20260508235504 | 64 | 327 | 0.0 | 3.0 | 0.00 | 0.00 | 0.00 | 56 | 1015.7 |
| 20260508235005 | 64 | 330 | 1.0 | 3.0 | 0.00 | 0.00 | 0.00 | 56 | 1015.7 |
| 20260508234505 | 64 | 314 | 1.0 | 4.0 | 0.00 | 0.00 | 0.00 | 56 | 1015.8 |
| 20260508234004 | 64 | 299 | 1.0 | 4.0 | 0.00 | 0.00 | 0.00 | 56 | 1015.9 |
| 20260508233505 | 64 | 214 | 1.0 | 4.0 | 0.00 | 0.00 | 0.00 | 57 | 1015.9 |
| 20260508233005 | 64 | 205 | 1.0 | 7.0 | 0.00 | 0.00 | 0.00 | 58 | 1015.7 |
| 20260508232004 | 63 | 225 | 0.0 | 4.0 | 0.00 | 0.00 | 0.00 | 61 | 1016.0 |
| 20260508231004 | 63 | 90 | 0.0 | 2.0 | 0.00 | 0.00 | 0.00 | 61 | 1016.5 |
| 20260508230505 | 63 | 90 | 0.0 | 2.0 | 0.00 | 0.00 | 0.00 | 60 | 1016.4 |
| 20260508230004 | 63 | 181 | 0.0 | 3.0 | 0.00 | 0.00 | 0.00 | 59 | 1016.3 |
| 20260508224505 | 63 | 123 | 0.0 | 3.0 | 0.00 | 0.00 | 0.00 | 61 | 1016.4 |
| 20260508224004 | 63 | 67 | 0.0 | 3.0 | 0.00 | 0.00 | 0.00 | 61 | 1016.7 |
| 20260508223504 | 64 | 161 | 1.0 | 4.0 | 0.00 | 0.00 | 0.00 | 60 | 1016.5 |
| 20260508223004 | 64 | 181 | 1.0 | 4.0 | 0.00 | 0.00 | 0.00 | 60 | 1016.6 |
| 20260508222505 | 63 | 185 | 2.0 | 4.0 | 0.00 | 0.00 | 0.00 | 61 | 1016.6 |
| 20260508221505 | 63 | 181 | 1.0 | 4.0 | 0.00 | 0.00 | 0.00 | 61 | 1016.7 |
| 20260508215504 | 65 | 54 | 1.0 | 5.0 | 0.00 | 0.00 | 0.00 | 57 | 1016.6 |
| 20260508215005 | 66 | 114 | 1.0 | 3.0 | 0.00 | 0.00 | 0.00 | 55 | 1016.6 |
| 20260508214505 | 66 | 184 | 1.0 | 4.0 | 0.00 | 0.00 | 0.00 | 52 | 1016.4 |
| 20260508214004 | 66 | 241 | 1.0 | 4.0 | 0.00 | 0.00 | 0.00 | 50 | 1016.4 |
| 20260508213504 | 66 | 261 | 1.0 | 4.0 | 0.00 | 0.00 | 0.00 | 51 | 1016.6 |
| 20260508213004 | 66 | 257 | 0.0 | 4.0 | 0.00 | 0.00 | 0.00 | 51 | 1016.5 |
| 20260508212504 | 66 | 242 | 1.0 | 4.0 | 0.00 | 0.00 | 0.00 | 52 | 1016.5 |
| 20260508212005 | 66 | 251 | 0.0 | 4.0 | 0.00 | 0.00 | 0.00 | 52 | 1016.4 |
| 20260508211505 | 66 | 242 | 0.0 | 4.0 | 0.00 | 0.00 | 0.00 | 52 | 1016.5 |
| 20260508211004 | 65 | 226 | 0.0 | 7.0 | 0.00 | 0.00 | 0.00 | 53 | 1016.4 |
| 20260508210505 | 65 | 225 | 0.0 | 7.0 | 0.00 | 0.00 | 0.00 | 54 | 1016.4 |
| 20260508210005 | 64 | 288 | 0.0 | 7.0 | 0.00 | 0.00 | 0.00 | 56 | 1016.4 |
| 20260508205504 | 64 | 314 | 0.0 | 3.0 | 0.00 | 0.00 | 0.00 | 58 | 1016.4 |
| 20260508205004 | 64 | 314 | 0.0 | 2.0 | 0.00 | 0.00 | 0.00 | 58 | 1016.4 |
| 20260508204505 | 65 | 306 | 0.0 | 2.0 | 0.00 | 0.00 | 0.00 | 58 | 1016.5 |
| 20260508204004 | 65 | 151 | 1.0 | 4.0 | 0.00 | 0.00 | 0.00 | 58 | 1016.6 |
| 20260508203504 | 65 | 90 | 1.0 | 4.0 | 0.00 | 0.00 | 0.00 | 57 | 1016.6 |
| 20260508203005 | 65 | 39 | 1.0 | 4.0 | 0.00 | 0.00 | 0.00 | 56 | 1016.5 |
| 20260508202504 | 66 | 68 | 2.0 | 7.0 | 0.00 | 0.00 | 0.00 | 55 | 1016.2 |
| 20260508202004 | 66 | 90 | 3.0 | 7.0 | 0.00 | 0.00 | 0.00 | 54 | 1016.4 |
| 20260508201505 | 66 | 100 | 4.0 | 7.0 | 0.00 | 0.00 | 0.00 | 54 | 1016.3 |
| 20260508201004 | 66 | 111 | 2.0 | 7.0 | 0.00 | 0.00 | 0.00 | 52 | 1016.0 |
| 20260508200504 | 66 | 272 | 0.0 | 5.0 | 0.00 | 0.00 | 0.00 | 50 | 1016.2 |
| 20260508200005 | 66 | 291 | 0.0 | 5.0 | 0.00 | 0.00 | 0.00 | 50 | 1016.3 |
| 20260508195504 | 66 | 331 | 1.0 | 5.0 | 0.00 | 0.00 | 0.00 | 51 | 1016.3 |
| 20260508195004 | 66 | 23 | 1.0 | 5.0 | 0.00 | 0.00 | 0.00 | 52 | 1016.2 |
| 20260508194005 | 67 | 1 | 2.0 | 6.0 | 0.00 | 0.00 | 0.00 | 51 | 1016.1 |
| 20260508193505 | 67 | 359 | 3.0 | 8.0 | 0.00 | 0.00 | 0.00 | 50 | 1015.9 |
| 20260508192504 | 67 | 346 | 4.0 | 8.0 | 0.00 | 0.00 | 0.00 | 51 | 1015.8 |
| 20260508192004 | 68 | 326 | 3.0 | 7.0 | 0.00 | 0.00 | 0.00 | 50 | 1015.8 |
| 20260508191504 | 67 | 315 | 3.0 | 8.0 | 0.00 | 0.00 | 0.00 | 48 | 1015.8 |
| 20260508191004 | 67 | 312 | 3.0 | 9.0 | 0.00 | 0.00 | 0.00 | 49 | 1015.8 |
| 20260508190503 | 67 | 314 | 2.0 | 9.0 | 0.00 | 0.00 | 0.00 | 50 | 1015.6 |
| 20260508190005 | 67 | 337 | 2.0 | 9.0 | 0.00 | 0.00 | 0.00 | 51 | 1015.3 |
| 20260508185004 | 67 | 313 | 3.0 | 11.0 | 0.00 | 0.00 | 0.00 | 53 | 1015.2 |
| 20260508184504 | 67 | 332 | 3.0 | 11.0 | 0.00 | 0.00 | 0.00 | 51 | 1015.2 |
| 20260508183504 | 67 | 305 | 2.0 | 5.0 | 0.00 | 0.00 | 0.00 | 48 | 1015.0 |
| 20260508182504 | 68 | 277 | 2.0 | 10.0 | 0.00 | 0.00 | 0.00 | 49 | 1014.5 |
| 20260508182004 | 67 | 276 | 2.0 | 8.0 | 0.00 | 0.00 | 0.00 | 49 | 1014.4 |
| 20260508181504 | 67 | 273 | 2.0 | 8.0 | 0.00 | 0.00 | 0.00 | 51 | 1014.5 |
| 20260508181005 | 67 | 256 | 1.0 | 6.0 | 0.00 | 0.00 | 0.00 | 51 | 1014.5 |
| 20260508180504 | 67 | 118 | 1.0 | 4.0 | 0.00 | 0.00 | 0.00 | 53 | 1014.3 |
| 20260508175005 | 68 | 1 | 2.0 | 7.0 | 0.00 | 0.00 | 0.00 | 49 | 1014.6 |
| 20260508174004 | 69 | 255 | 1.0 | 8.0 | 0.00 | 0.00 | 0.00 | 46 | 1014.3 |
| 20260508173504 | 69 | 224 | 1.0 | 6.0 | 0.00 | 0.00 | 0.00 | 46 | 1014.1 |
| 20260508173005 | 69 | 240 | 2.0 | 7.0 | 0.00 | 0.00 | 0.00 | 46 | 1013.7 |
| 20260508172504 | 69 | 236 | 2.0 | 7.0 | 0.00 | 0.00 | 0.00 | 46 | 1013.6 |
| 20260508172004 | 69 | 228 | 2.0 | 6.0 | 0.00 | 0.00 | 0.00 | 47 | 1013.2 |
| 20260508171505 | 69 | 250 | 1.0 | 4.0 | 0.00 | 0.00 | 0.00 | 48 | 1013.4 |
| 20260508171004 | 69 | 238 | 0.0 | 4.0 | 0.00 | 0.00 | 0.00 | 49 | 1013.4 |
| 20260508170005 | 69 | 36 | 1.0 | 5.0 | 0.00 | 0.00 | 0.00 | 50 | 1013.6 |
| 20260508165004 | 70 | 350 | 3.0 | 8.0 | 0.00 | 0.00 | 0.00 | 49 | 1013.8 |
| 20260508164504 | 70 | 328 | 4.0 | 8.0 | 0.00 | 0.00 | 0.00 | 49 | 1013.9 |
| 20260508164004 | 70 | 323 | 3.0 | 8.0 | 0.00 | 0.00 | 0.00 | 50 | 1014.0 |
| 20260508163504 | 70 | 337 | 2.0 | 7.0 | 0.00 | 0.00 | 0.00 | 49 | 1013.8 |
| 20260508163005 | 70 | 356 | 1.0 | 7.0 | 0.00 | 0.00 | 0.00 | 48 | 1013.8 |
| 20260508162504 | 71 | 5 | 2.0 | 10.0 | 0.00 | 0.00 | 0.00 | 47 | 1013.8 |
| 20260508162004 | 72 | 348 | 3.0 | 10.0 | 0.00 | 0.00 | 0.00 | 47 | 1013.8 |
| 20260508161504 | 72 | 325 | 3.0 | 8.0 | 0.00 | 0.00 | 0.00 | 46 | 1013.9 |
| 20260508161004 | 73 | 321 | 4.0 | 10.0 | 0.00 | 0.00 | 0.00 | 43 | 1013.7 |
| 20260508160005 | 74 | 45 | 2.0 | 7.0 | 0.00 | 0.00 | 0.00 | 42 | 1013.4 |
| 20260508155004 | 75 | 84 | 4.0 | 13.0 | 0.00 | 0.00 | 0.00 | 40 | 1013.6 |
| 20260508154504 | 75 | 83 | 3.0 | 7.0 | 0.00 | 0.00 | 0.00 | 40 | 1013.6 |
| 20260508154004 | 75 | 324 | 3.0 | 8.0 | 0.00 | 0.00 | 0.00 | 39 | 1013.6 |
| 20260508153504 | 75 | 339 | 2.0 | 8.0 | 0.00 | 0.00 | 0.00 | 39 | 1013.6 |
| 20260508152504 | 75 | 35 | 2.0 | 7.0 | 0.00 | 0.00 | 0.00 | 40 | 1013.7 |
| 20260508152004 | 76 | 53 | 3.0 | 9.0 | 0.00 | 0.00 | 0.00 | 39 | 1013.5 |
| 20260508151004 | 77 | 329 | 3.0 | 8.0 | 0.00 | 0.00 | 0.00 | 39 | 1013.8 |
| 20260508150504 | 78 | 342 | 2.0 | 8.0 | 0.00 | 0.00 | 0.00 | 38 | 1013.6 |
| 20260508150005 | 78 | 40 | 2.0 | 6.0 | 0.00 | 0.00 | 0.00 | 37 | 1013.5 |
| 20260508145504 | 79 | 67 | 3.0 | 9.0 | 0.00 | 0.00 | 0.00 | 36 | 1013.6 |
| 20260508145004 | 79 | 57 | 4.0 | 9.0 | 0.00 | 0.00 | 0.00 | 32 | 1013.5 |
| 20260508144504 | 80 | 312 | 1.0 | 6.0 | 0.00 | 0.00 | 0.00 | 33 | 1013.5 |
| 20260508144004 | 79 | 277 | 1.0 | 6.0 | 0.00 | 0.00 | 0.00 | 31 | 1013.4 |
| 20260508143004 | 78 | 340 | 2.0 | 5.0 | 0.00 | 0.00 | 0.00 | 37 | 1013.6 |
| 20260508142504 | 78 | 18 | 2.0 | 7.0 | 0.00 | 0.00 | 0.00 | 36 | 1013.6 |
| 20260508142004 | 79 | 43 | 3.0 | 7.0 | 0.00 | 0.00 | 0.00 | 35 | 1013.7 |
| 20260508141504 | 79 | 3 | 2.0 | 6.0 | 0.00 | 0.00 | 0.00 | 37 | 1013.9 |
| 20260508141004 | 79 | 5 | 2.0 | 8.0 | 0.00 | 0.00 | 0.00 | 36 | 1013.8 |
| 20260508140505 | 79 | 29 | 3.0 | 8.0 | 0.00 | 0.00 | 0.00 | 36 | 1013.8 |
| 20260508140005 | 80 | 333 | 4.0 | 13.0 | 0.00 | 0.00 | 0.00 | 34 | 1014.0 |
| 20260508135004 | 81 | 295 | 2.0 | 7.0 | 0.00 | 0.00 | 0.00 | 27 | 1013.7 |
| 20260508134505 | 81 | 242 | 2.0 | 8.0 | 0.00 | 0.00 | 0.00 | 27 | 1013.8 |
| 20260508134005 | 80 | 220 | 2.0 | 8.0 | 0.00 | 0.00 | 0.00 | 27 | 1014.0 |
| 20260508133504 | 80 | 202 | 3.0 | 9.0 | 0.00 | 0.00 | 0.00 | 26 | 1014.1 |
| 20260508132504 | 80 | 201 | 4.0 | 10.0 | 0.00 | 0.00 | 0.00 | 25 | 1014.2 |
| 20260508132004 | 80 | 202 | 5.0 | 11.0 | 0.00 | 0.00 | 0.00 | 25 | 1014.2 |
| 20260508131505 | 80 | 200 | 4.0 | 11.0 | 0.00 | 0.00 | 0.00 | 25 | 1014.3 |
| 20260508131004 | 80 | 195 | 4.0 | 11.0 | 0.00 | 0.00 | 0.00 | 26 | 1014.3 |
| 20260508130504 | 79 | 176 | 5.0 | 12.0 | 0.00 | 0.00 | 0.00 | 26 | 1014.6 |
| 20260508125504 | 79 | 172 | 6.0 | 12.0 | 0.00 | 0.00 | 0.00 | 26 | 1014.6 |
| 20260508125004 | 79 | 183 | 5.0 | 12.0 | 0.00 | 0.00 | 0.00 | 27 | 1014.7 |
| 20260508124004 | 77 | 124 | 4.0 | 9.0 | 0.00 | 0.00 | 0.00 | 30 | 1015.0 |
| 20260508123504 | 77 | 77 | 4.0 | 9.0 | 0.00 | 0.00 | 0.00 | 30 | 1015.1 |
| 20260508123005 | 76 | 60 | 5.0 | 10.0 | 0.00 | 0.00 | 0.00 | 31 | 1015.3 |
| 20260508122504 | 76 | 69 | 5.0 | 10.0 | 0.00 | 0.00 | 0.00 | 32 | 1015.3 |
| 20260508122004 | 76 | 40 | 4.0 | 9.0 | 0.00 | 0.00 | 0.00 | 34 | 1015.4 |
| 20260508121505 | 76 | 18 | 4.0 | 14.0 | 0.00 | 0.00 | 0.00 | 33 | 1015.7 |
| 20260508121004 | 76 | 39 | 3.0 | 14.0 | 0.00 | 0.00 | 0.00 | 32 | 1015.6 |
| 20260508120504 | 77 | 90 | 1.0 | 6.0 | 0.00 | 0.00 | 0.00 | 31 | 1015.9 |
| 20260508120005 | 76 | 19 | 1.0 | 5.0 | 0.00 | 0.00 | 0.00 | 32 | 1015.8 |
| 20260508115504 | 76 | 6 | 1.0 | 5.0 | 0.00 | 0.00 | 0.00 | 32 | 1015.6 |
| 20260508115004 | 77 | 55 | 0.0 | 4.0 | 0.00 | 0.00 | 0.00 | 33 | 1015.7 |
| 20260508114505 | 76 | 341 | 1.0 | 4.0 | 0.00 | 0.00 | 0.00 | 31 | 1015.6 |
| 20260508114004 | 76 | 7 | 1.0 | 4.0 | 0.00 | 0.00 | 0.00 | 33 | 1015.5 |
| 20260508113504 | 76 | 141 | 1.0 | 4.0 | 0.00 | 0.00 | 0.00 | 32 | 1015.6 |
| 20260508113005 | 75 | 98 | 2.0 | 7.0 | 0.00 | 0.00 | 0.00 | 32 | 1016.0 |
| 20260508112504 | 75 | 65 | 3.0 | 9.0 | 0.00 | 0.00 | 0.00 | 33 | 1015.9 |
| 20260508112004 | 75 | 46 | 3.0 | 9.0 | 0.00 | 0.00 | 0.00 | 37 | 1016.0 |
| 20260508111505 | 74 | 3 | 3.0 | 7.0 | 0.00 | 0.00 | 0.00 | 35 | 1016.3 |
| 20260508110005 | 73 | 77 | 2.0 | 6.0 | 0.00 | 0.00 | 0.00 | 35 | 1016.1 |
| 20260508105504 | 73 | 72 | 1.0 | 5.0 | 0.00 | 0.00 | 0.00 | 33 | 1016.0 |
| 20260508105005 | 73 | 93 | 1.0 | 5.0 | 0.00 | 0.00 | 0.00 | 32 | 1016.3 |
| 20260508104505 | 73 | 130 | 1.0 | 4.0 | 0.00 | 0.00 | 0.00 | 33 | 1016.6 |
| 20260508104004 | 73 | 285 | 1.0 | 5.0 | 0.00 | 0.00 | 0.00 | 34 | 1016.7 |
| 20260508103504 | 73 | 288 | 1.0 | 5.0 | 0.00 | 0.00 | 0.00 | 34 | 1017.1 |
| 20260508103005 | 73 | 252 | 0.0 | 3.0 | 0.00 | 0.00 | 0.00 | 35 | 1017.1 |
| 20260508102504 | 73 | 225 | 0.0 | 3.0 | 0.00 | 0.00 | 0.00 | 35 | 1017.1 |
| 20260508101505 | 72 | 225 | 1.0 | 3.0 | 0.00 | 0.00 | 0.00 | 35 | 1017.2 |
| 20260508101004 | 72 | 222 | 1.0 | 4.0 | 0.00 | 0.00 | 0.00 | 34 | 1017.1 |
| 20260508100504 | 72 | 226 | 2.0 | 6.0 | 0.00 | 0.00 | 0.00 | 33 | 1016.9 |
| 20260508100005 | 72 | 232 | 3.0 | 6.0 | 0.00 | 0.00 | 0.00 | 32 | 1017.2 |
| 20260508095504 | 72 | 222 | 2.0 | 7.0 | 0.00 | 0.00 | 0.00 | 32 | 1017.1 |
| 20260508095004 | 72 | 167 | 3.0 | 11.0 | 0.00 | 0.00 | 0.00 | 32 | 1017.3 |
| 20260508094504 | 72 | 173 | 3.0 | 11.0 | 0.00 | 0.00 | 0.00 | 32 | 1017.2 |
| 20260508094004 | 72 | 258 | 2.0 | 7.0 | 0.00 | 0.00 | 0.00 | 33 | 1017.5 |
| 20260508093504 | 72 | 275 | 2.0 | 7.0 | 0.00 | 0.00 | 0.00 | 34 | 1017.7 |
| 20260508093005 | 72 | 279 | 2.0 | 6.0 | 0.00 | 0.00 | 0.00 | 35 | 1017.7 |
| 20260508092504 | 72 | 305 | 2.0 | 6.0 | 0.00 | 0.00 | 0.00 | 36 | 1017.8 |
| 20260508092004 | 72 | 281 | 2.0 | 7.0 | 0.00 | 0.00 | 0.00 | 35 | 1017.9 |
| 20260508091004 | 71 | 286 | 2.0 | 9.0 | 0.00 | 0.00 | 0.00 | 35 | 1018.0 |
| 20260508090504 | 71 | 273 | 3.0 | 9.0 | 0.00 | 0.00 | 0.00 | 35 | 1018.0 |
| 20260508090005 | 70 | 262 | 2.0 | 8.0 | 0.00 | 0.00 | 0.00 | 35 | 1018.0 |
| 20260508085504 | 70 | 284 | 2.0 | 8.0 | 0.00 | 0.00 | 0.00 | 35 | 1017.9 |
| 20260508085004 | 71 | 292 | 2.0 | 6.0 | 0.00 | 0.00 | 0.00 | 34 | 1017.9 |
| 20260508084505 | 71 | 280 | 2.0 | 9.0 | 0.00 | 0.00 | 0.00 | 33 | 1017.6 |
| 20260508084004 | 71 | 274 | 3.0 | 9.0 | 0.00 | 0.00 | 0.00 | 32 | 1017.6 |
| 20260508083504 | 71 | 242 | 2.0 | 9.0 | 0.00 | 0.00 | 0.00 | 31 | 1017.2 |
| 20260508083005 | 72 | 177 | 2.0 | 5.0 | 0.00 | 0.00 | 0.00 | 31 | 1017.5 |
| 20260508082504 | 72 | 238 | 2.0 | 6.0 | 0.00 | 0.00 | 0.00 | 31 | 1017.4 |
| 20260508082004 | 72 | 237 | 2.0 | 8.0 | 0.00 | 0.00 | 0.00 | 30 | 1017.6 |
| 20260508081004 | 72 | 224 | 6.0 | 15.0 | 0.00 | 0.00 | 0.00 | 27 | 1017.6 |
| 20260508080005 | 72 | 184 | 3.0 | 11.0 | 0.00 | 0.00 | 0.00 | 28 | 1017.5 |
| 20260508075505 | 72 | 214 | 3.0 | 10.0 | 0.00 | 0.00 | 0.00 | 30 | 1017.4 |
| 20260508075003 | 72 | 261 | 2.0 | 7.0 | 0.00 | 0.00 | 0.00 | 31 | 1017.5 |
| 20260508074004 | 72 | 239 | 2.0 | 9.0 | 0.00 | 0.00 | 0.00 | 32 | 1017.9 |
| 20260508073504 | 72 | 259 | 2.0 | 8.0 | 0.00 | 0.00 | 0.00 | 32 | 1017.7 |
| 20260508073005 | 71 | 279 | 3.0 | 8.0 | 0.00 | 0.00 | 0.00 | 33 | 1018.0 |
| 20260508072504 | 71 | 282 | 2.0 | 7.0 | 0.00 | 0.00 | 0.00 | 33 | 1018.0 |
| 20260508072004 | 71 | 270 | 2.0 | 7.0 | 0.00 | 0.00 | 0.00 | 34 | 1018.0 |
| 20260508071504 | 70 | 270 | 2.0 | 7.0 | 0.00 | 0.00 | 0.00 | 34 | 1017.8 |
| 20260508071004 | 70 | 276 | 4.0 | 13.0 | 0.00 | 0.00 | 0.00 | 34 | 1018.0 |
| 20260508070006 | 69 | 279 | 3.0 | 12.0 | 0.00 | 0.00 | 0.00 | 36 | 1018.3 |
| 20260508065504 | 69 | 267 | 2.0 | 9.0 | 0.00 | 0.00 | 0.00 | 39 | 1018.1 |
| 20260508065004 | 68 | 245 | 3.0 | 11.0 | 0.00 | 0.00 | 0.00 | 39 | 1018.1 |
| 20260508064505 | 67 | 258 | 2.0 | 11.0 | 0.00 | 0.00 | 0.00 | 42 | 1018.2 |
| 20260508064004 | 67 | 312 | 2.0 | 7.0 | 0.00 | 0.00 | 0.00 | 47 | 1018.1 |
| 20260508063504 | 66 | 301 | 2.0 | 7.0 | 0.00 | 0.00 | 0.00 | 49 | 1018.1 |
| 20260508063005 | 65 | 262 | 1.0 | 4.0 | 0.00 | 0.00 | 0.00 | 55 | 1018.2 |
| 20260508062004 | 65 | 210 | 1.0 | 5.0 | 0.00 | 0.00 | 0.00 | 60 | 1018.1 |
| 20260508061504 | 65 | 285 | 1.0 | 4.0 | 0.00 | 0.00 | 0.00 | 62 | 1018.1 |
| 20260508060504 | 64 | 345 | 2.0 | 4.0 | 0.00 | 0.00 | 0.00 | 65 | 1018.0 |
| 20260508060005 | 64 | 337 | 1.0 | 5.0 | 0.00 | 0.00 | 0.00 | 66 | 1017.8 |
| 20260508055504 | 64 | 323 | 2.0 | 7.0 | 0.00 | 0.00 | 0.00 | 67 | 1017.7 |
| 20260508055004 | 63 | 300 | 3.0 | 7.0 | 0.00 | 0.00 | 0.00 | 68 | 1017.4 |
| 20260508054004 | 62 | 73 | 1.0 | 5.0 | 0.00 | 0.00 | 0.00 | 69 | 1017.1 |
| 20260508053504 | 62 | 71 | 1.0 | 5.0 | 0.00 | 0.00 | 0.00 | 70 | 1017.0 |
| 20260508053004 | 62 | 73 | 1.0 | 4.0 | 0.00 | 0.00 | 0.00 | 70 | 1016.6 |
| 20260508052504 | 61 | 84 | 2.0 | 4.0 | 0.00 | 0.00 | 0.00 | 71 | 1016.7 |
| 20260508052004 | 61 | 144 | 1.0 | 4.0 | 0.00 | 0.00 | 0.00 | 71 | 1016.6 |
| 20260508051504 | 61 | 136 | 1.0 | 4.0 | 0.00 | 0.00 | 0.00 | 71 | 1016.7 |
| 20260508051005 | 60 | 102 | 1.0 | 4.0 | 0.00 | 0.00 | 0.00 | 72 | 1016.6 |
| 20260508050004 | 60 | 354 | 2.0 | 5.0 | 0.00 | 0.00 | 0.00 | 73 | 1016.5 |
| 20260508045504 | 59 | 17 | 1.0 | 4.0 | 0.00 | 0.00 | 0.00 | 74 | 1016.5 |
| 20260508044504 | 59 | 238 | 1.0 | 5.0 | 0.00 | 0.00 | 0.00 | 74 | 1016.6 |
| 20260508043005 | 59 | 203 | 0.0 | 5.0 | 0.00 | 0.00 | 0.00 | 76 | 1016.4 |
| 20260508042504 | 59 | 235 | 0.0 | 4.0 | 0.00 | 0.00 | 0.00 | 76 | 1016.2 |
| 20260508042004 | 59 | 229 | 1.0 | 4.0 | 0.00 | 0.00 | 0.00 | 76 | 1016.1 |
| 20260508041505 | 59 | 207 | 0.0 | 4.0 | 0.00 | 0.00 | 0.00 | 76 | 1016.3 |
| 20260508040504 | 59 | 206 | 0.0 | 4.0 | 0.00 | 0.00 | 0.00 | 76 | 1016.1 |
| 20260508040004 | 59 | 230 | 0.0 | 3.0 | 0.00 | 0.00 | 0.00 | 75 | 1016.1 |
| 20260508035505 | 59 | 222 | 0.0 | 3.0 | 0.00 | 0.00 | 0.00 | 75 | 1016.0 |
| 20260508035005 | 59 | 239 | 0.0 | 2.0 | 0.00 | 0.00 | 0.00 | 75 | 1015.8 |
| 20260508034504 | 59 | 223 | 1.0 | 5.0 | 0.00 | 0.00 | 0.00 | 75 | 1015.8 |
| 20260508033504 | 59 | 226 | 1.0 | 6.0 | 0.00 | 0.00 | 0.00 | 75 | 1015.9 |
| 20260508033004 | 59 | 336 | 0.0 | 3.0 | 0.00 | 0.00 | 0.00 | 75 | 1016.1 |
| 20260508032503 | 59 | 17 | 0.0 | 3.0 | 0.00 | 0.00 | 0.00 | 75 | 1015.9 |
| 20260508032004 | 59 | 184 | 0.0 | 2.0 | 0.00 | 0.00 | 0.00 | 75 | 1016.0 |
| 20260508031505 | 59 | 200 | 0.0 | 2.0 | 0.00 | 0.00 | 0.00 | 75 | 1015.8 |
| 20260508031005 | 59 | 206 | 0.0 | 3.0 | 0.00 | 0.00 | 0.00 | 75 | 1015.8 |
| 20260508030005 | 59 | 21 | 1.0 | 4.0 | 0.00 | 0.00 | 0.00 | 75 | 1015.8 |
| 20260508025504 | 59 | 78 | 1.0 | 4.0 | 0.00 | 0.00 | 0.00 | 75 | 1015.6 |
| 20260508025004 | 59 | 87 | 1.0 | 4.0 | 0.00 | 0.00 | 0.00 | 75 | 1015.8 |
| 20260508024504 | 59 | 50 | 1.0 | 4.0 | 0.00 | 0.00 | 0.00 | 75 | 1016.0 |
| 20260508024004 | 59 | 225 | 1.0 | 4.0 | 0.00 | 0.00 | 0.00 | 75 | 1016.0 |
| 20260508023504 | 59 | 212 | 1.0 | 4.0 | 0.00 | 0.00 | 0.00 | 75 | 1016.0 |
| 20260508023004 | 59 | 204 | 1.0 | 4.0 | 0.00 | 0.00 | 0.00 | 74 | 1016.1 |
| 20260508022504 | 59 | 290 | 0.0 | 4.0 | 0.00 | 0.00 | 0.00 | 75 | 1016.1 |
| 20260508021005 | 59 | 28 | 0.0 | 4.0 | 0.00 | 0.00 | 0.00 | 75 | 1016.1 |
| 20260508020004 | 59 | 103 | 0.0 | 3.0 | 0.00 | 0.00 | 0.00 | 75 | 1016.1 |
| 20260508015504 | 59 | 0 | 0.0 | 0.0 | 0.00 | 0.00 | 0.00 | 74 | 1016.0 |
| 20260508015004 | 59 | 0 | 0.0 | 0.0 | 0.00 | 0.00 | 0.00 | 74 | 1016.1 |
| 20260508014504 | 59 | 0 | 0.0 | 0.0 | 0.00 | 0.00 | 0.00 | 74 | 1016.1 |
| 20260508014004 | 59 | 0 | 0.0 | 0.0 | 0.00 | 0.00 | 0.00 | 74 | 1016.2 |
| 20260508013005 | 59 | 23 | 0.0 | 2.0 | 0.00 | 0.00 | 0.00 | 73 | 1016.2 |
| 20260508012504 | 59 | 0 | 0.0 | 0.0 | 0.00 | 0.00 | 0.00 | 74 | 1016.1 |
| 20260508012004 | 59 | 0 | 0.0 | 0.0 | 0.00 | 0.00 | 0.00 | 74 | 1016.5 |
| 20260508011004 | 59 | 106 | 0.0 | 2.0 | 0.00 | 0.00 | 0.00 | 74 | 1016.5 |
| 20260508010504 | 59 | 90 | 0.0 | 2.0 | 0.00 | 0.00 | 0.00 | 74 | 1016.2 |
| 20260508010005 | 59 | 76 | 0.0 | 2.0 | 0.00 | 0.00 | 0.00 | 74 | 1016.4 |